Temp
-6 -7 -7 -7 -7 -7 -7 -7 -7 -7 -7 -8 -8 -8 -8 -8 -8 -8 -8 -8 -8 -8 -8 -8 -8 -8 -8 -8 -8 -9 -9 -9 -9 -9 -9 -9 -9 -9 -9 -9 -9 -9 -9
-7 -7 -7 -7 -7 -7 -7 -7 -7 -7 -8 -8 -8 -8 -8 -8 -8 -8 -9 -9 -9 -8 -8 -8 -8 -8 -8 -8 -8 -9 -9 -9 -9 -9 -9 -9 -9 -9 -9 -9 -9 -9 -9
-6 -7 -7 -7 -7 -7 -7 -7 -8 -8 -8 -8 -8 -8 -8 -8 -8 -8 -8 -8 -8 -8 -8 -8 -8 -8 -8 -8 -8 -9 -9 -9 -9 -9 -9 -9 -9 -9 -9 -9 -9 -9 -9
-6 -7 -7 -7 -7 -7 -8 -8 -8 -8 -8 -8 -8 -8 -8 -8 -8 -8 -8 -8 -8 -8 -8 -8 -8 -8 -8 -8 -8 -8 -8 -9 -9 -9 -9 -9 -9 -9 -9 -9 -9 -9 -9
-7 -6 -7 -7 -7 -7 -8 -8 -8 -8 -8 -8 -8 -8 -8 -8 -8 -8 -8 -8 -8 -8 -9 -9 -9 -8 -8 -8 -9 -9 -9 -9 -9 -9 -9 -9 -9 -9 -9 -9 -9 -9 -8
-7 -7 -7 -7 -7 -7 -8 -8 -8 -8 -8 -8 -8 -8 -8 -7 -8 -8 -8 -7 -8 -7 -9 -9 -8 -8 -9 -9 -9 -8 -9 -8 -9 -9 -9 -9 -9 -9 -9 -8 -9 -8 -8
-7 -7 -7 -7 -7 -7 -8 -8 -8 -8 -8 -8 -8 -8 -7 -7 -7 -8 -7 -8 -8 -8 -9 -9 -9 -9 -8 -8 -9 -9 -8 -8 -9 -9 -9 -9 -9 -9 -8 -8 -9 -8 -8
-7 -7 -7 -6 -7 -7 -7 -8 -8 -8 -7 -7 -7 -7 -8 -7 -7 -7 -7 -8 -8 -8 -9 -9 -9 -9 -9 -9 -9 -9 -9 -9 -9 -9 -9 -9 -9 -9 -9 -8 -9 -8 -8
-6 -6 -6 -7 -7 -7 -7 -7 -7 -7 -7 -7 -7 -7 -7 -7 -8 -7 -7 -8 -8 -8 -9 -9 -9 -9 -8 -8 -8 -9 -9 -9 -9 -9 -9 -9 -9 -9 -9 -9 -9 -9 -9
-6 -6 -6 -7 -7 -7 -7 -7 -7 -7 -7 -7 -7 -7 -7 -7 -8 -8 -7 -8 -8 -8 -8 -8 -8 -9 -8 -8 -8 -9 -9 -9 -9 -9 -9 -9 -9 -9 -9 -9 -9 -9 -9
-6 -6 -6 -6 -7 -7 -7 -7 -7 -7 -7 -7 -8 -7 -8 -8 -8 -8 -8 -8 -8 -8 -8 -8 -8 -8 -8 -9 -8 -9 -9 -9 -9 -9 -9 -9 -9 -9 -9 -9 -9 -9 -9
-6 -6 -6 -6 -6 -7 -7 -6 -7 -6 -7 -7 -7 -7 -8 -8 -8 -9 -8 -8 -8 -8 -8 -8 -8 -8 -8 -9 -9 -9 -9 -8 -9 -9 -9 -9 -9 -9 -9 -9 -9 -9 -9
-6 -7 -6 -6 -6 -6 -6 -6 -6 -6 -7 -7 -7 -8 -8 -8 -8 -8 -8 -8 -7 -8 -8 -8 -8 -8 -8 -8 -8 -8 -8 -8 -8 -8 -9 -9 -9 -9 -9 -9 -9 -9 -9
-6 -7 -6 -6 -6 -6 -6 -6 -6 -7 -7 -7 -7 -8 -8 -8 -8 -8 -8 -8 -8 -8 -8 -8 -8 -8 -8 -8 -7 -7 -7 -7 -7 -8 -8 -9 -9 -9 -9 -9 -9 -9 -9
-6 -6 -6 -6 -6 -6 -6 -6 -6 -7 -7 -7 -7 -8 -8 -8 -8 -8 -8 -8 -8 -8 -8 -8 -7 -7 -8 -8 -7 -7 -7 -7 -8 -7 -8 -8 -9 -9 -9 -9 -9 -9 -9
-6 -6 -6 -6 -6 -6 -6 -6 -6 -6 -7 -7 -7 -8 -8 -8 -8 -8 -8 -8 -8 -7 -7 -7 -7 -7 -8 -7 -7 -7 -7 -7 -7 -8 -8 -8 -8 -8 -8 -8 -8 -8 -8
-5 -6 -6 -6 -6 -6 -6 -6 -6 -6 -6 -7 -7 -7 -7 -8 -8 -7 -8 -7 -7 -7 -7 -7 -7 -7 -7 -7 -7 -7 -7 -7 -7 -8 -8 -8 -8 -8 -8 -8 -8 -8 -8
-5 -6 -6 -6 -6 -6 -6 -6 -6 -6 -6 -6 -6 -7 -7 -7 -7 -7 -7 -7 -7 -7 -7 -7 -7 -7 -7 -7 -7 -7 -7 -7 -8 -8 -8 -8 -8 -8 -8 -8 -8 -8 -8
-5 -5 -5 -5 -5 -6 -6 -6 -6 -6 -6 -6 -6 -6 -6 -6 -7 -6 -7 -7 -7 -7 -7 -7 -7 -7 -7 -7 -7 -7 -7 -7 -7 -8 -8 -8 -8 -8 -8 -8 -8 -8 -8
-5 -5 -5 -5 -5 -5 -5 -6 -6 -6 -5 -6 -6 -6 -6 -6 -6 -6 -6 -6 -6 -6 -7 -7 -7 -7 -7 -7 -7 -7 -7 -7 -8 -8 -8 -8 -8 -8 -8 -8 -8 -7 -7
-5 -5 -5 -5 -5 -5 -6 -6 -6 -6 -6 -5 -5 -6 -6 -6 -6 -6 -6 -6 -6 -6 -6 -6 -6 -7 -7 -7 -7 -7 -7 -7 -7 -8 -8 -8 -8 -8 -7 -7 -8 -8 -8
-5 -5 -5 -5 -5 -5 -5 -5 -5 -5 -6 -5 -5 -5 -5 -5 -5 -6 -6 -6 -6 -6 -6 -6 -6 -6 -7 -7 -7 -7 -7 -7 -7 -7 -7 -7 -7 -7 -8 -8 -8 -8 -8
-5 -5 -5 -5 -5 -5 -5 -5 -5 -5 -5 -5 -5 -5 -5 -5 -5 -5 -6 -6 -6 -6 -6 -6 -6 -6 -6 -6 -7 -7 -7 -7 -7 -7 -7 -7 -8 -8 -8 -8 -8 -8 -8
-6 -5 -5 -5 -5 -5 -5 -5 -5 -6 -5 -5 -5 -5 -5 -5 -5 -5 -6 -6 -6 -6 -6 -6 -6 -6 -6 -6 -6 -6 -6 -6 -7 -7 -7 -7 -8 -8 -8 -8 -8 -8 -8
-6 -5 -5 -5 -5 -5 -5 -5 -5 -5 -4 -5 -5 -5 -5 -5 -5 -5 -5 -6 -6 -6 -6 -6 -6 -6 -6 -7 -6 -6 -6 -6 -7 -7 -7 -7 -8 -7 -7 -7 -7 -8 -8
-5 -5 -5 -5 -5 -5 -5 -5 -5 -5 -4 -5 -5 -5 -5 -5 -5 -5 -5 -6 -6 -6 -6 -6 -6 -6 -6 -7 -7 -7 -6 -7 -7 -7 -7 -7 -7 -7 -7 -7 -8 -8 -8
Height
5901 5901 5901 5902 5903 5903 5905 5906 5906 5907 5907 5907 5907 5907 5906 5906 5906 5906 5906 5906 5906 5906 5906 5905 5905 5905 5905 5906 5908 5909 5911 5912 5913 5913 5913 5914 5914 5914 5914 5914 5914 5914 5913
5902 5902 5903 5904 5904 5905 5907 5907 5909 5909 5909 5909 5909 5908 5908 5908 5908 5908 5908 5907 5908 5908 5908 5907 5907 5907 5907 5908 5909 5911 5913 5914 5914 5914 5915 5915 5916 5915 5916 5916 5916 5915 5915
5903 5904 5905 5906 5906 5907 5909 5910 5910 5910 5910 5910 5910 5910 5910 5909 5909 5909 5909 5908 5908 5908 5908 5909 5909 5909 5909 5910 5911 5912 5914 5915 5916 5916 5916 5916 5917 5917 5918 5918 5917 5918 5917
5905 5905 5906 5908 5909 5910 5911 5912 5912 5912 5912 5912 5911 5911 5911 5911 5911 5911 5909 5908 5908 5908 5908 5909 5910 5910 5910 5911 5912 5914 5915 5916 5917 5917 5918 5919 5919 5919 5919 5920 5919 5919 5919
5907 5907 5907 5909 5911 5912 5913 5914 5914 5914 5914 5913 5913 5913 5913 5914 5913 5912 5910 5909 5907 5907 5907 5909 5911 5911 5912 5913 5913 5915 5915 5917 5918 5920 5921 5921 5920 5921 5921 5921 5920 5919 5919
5909 5909 5909 5911 5913 5914 5915 5915 5916 5916 5915 5916 5916 5916 5916 5915 5914 5914 5912 5911 5908 5906 5907 5909 5912 5913 5914 5914 5913 5915 5918 5919 5920 5921 5921 5922 5922 5922 5922 5922 5921 5921 5921
5910 5911 5911 5913 5914 5916 5916 5917 5918 5919 5919 5919 5919 5919 5918 5917 5917 5916 5914 5911 5909 5908 5909 5911 5914 5915 5916 5916 5917 5918 5919 5921 5922 5922 5922 5923 5923 5924 5923 5923 5923 5923 5923
5911 5912 5913 5915 5916 5917 5918 5920 5921 5922 5921 5921 5921 5920 5920 5919 5919 5918 5917 5916 5915 5913 5914 5915 5917 5917 5918 5919 5919 5920 5922 5923 5924 5924 5924 5924 5925 5925 5925 5925 5925 5925 5925
5912 5913 5915 5916 5918 5920 5921 5922 5923 5924 5923 5923 5923 5923 5922 5922 5921 5921 5920 5919 5919 5919 5918 5918 5920 5921 5921 5922 5922 5923 5924 5925 5926 5926 5926 5927 5926 5927 5926 5926 5926 5927 5926
5913 5914 5916 5918 5920 5922 5923 5924 5925 5925 5925 5925 5925 5926 5925 5924 5923 5922 5923 5922 5923 5923 5921 5922 5923 5924 5924 5924 5925 5925 5926 5927 5927 5927 5928 5928 5928 5928 5927 5927 5928 5928 5927
5914 5916 5918 5920 5922 5924 5925 5925 5927 5927 5927 5926 5927 5928 5927 5925 5925 5925 5925 5925 5926 5925 5924 5926 5926 5927 5927 5926 5927 5927 5928 5928 5929 5928 5929 5929 5929 5928 5928 5928 5928 5927 5927
5914 5917 5920 5923 5924 5925 5926 5927 5928 5929 5928 5928 5929 5929 5929 5929 5928 5927 5928 5927 5928 5927 5927 5929 5928 5929 5929 5929 5930 5929 5930 5930 5930 5930 5930 5930 5929 5929 5929 5929 5928 5928 5927
5915 5918 5921 5924 5925 5927 5928 5929 5930 5931 5930 5931 5931 5932 5931 5930 5930 5930 5930 5930 5930 5929 5929 5930 5930 5929 5930 5931 5931 5931 5932 5931 5931 5931 5931 5930 5930 5931 5930 5930 5931 5930 5930
5915 5919 5922 5924 5926 5928 5930 5931 5932 5933 5932 5932 5933 5933 5932 5932 5931 5932 5932 5932 5932 5931 5930 5930 5931 5930 5932 5932 5932 5932 5932 5932 5933 5934 5933 5931 5932 5932 5932 5932 5931 5932 5932
5915 5918 5922 5924 5926 5929 5931 5932 5933 5935 5934 5934 5935 5935 5933 5933 5934 5934 5934 5934 5933 5933 5932 5931 5931 5932 5933 5933 5934 5934 5934 5934 5935 5936 5935 5934 5935 5934 5934 5934 5935 5934 5934
5914 5918 5922 5925 5927 5929 5932 5933 5935 5936 5936 5936 5937 5937 5936 5935 5936 5936 5936 5935 5934 5933 5933 5933 5932 5933 5935 5935 5936 5937 5937 5937 5937 5937 5937 5937 5937 5937 5937 5937 5938 5937 5937
5915 5917 5921 5925 5927 5930 5933 5934 5936 5937 5938 5938 5939 5939 5939 5938 5938 5939 5938 5937 5937 5936 5936 5936 5936 5936 5937 5937 5938 5939 5939 5939 5940 5940 5939 5939 5939 5940 5941 5941 5941 5941 5940
5915 5917 5921 5924 5928 5931 5934 5935 5937 5938 5940 5940 5941 5941 5941 5941 5941 5941 5940 5939 5939 5940 5939 5939 5940 5940 5940 5940 5940 5941 5941 5941 5942 5942 5942 5942 5943 5943 5944 5945 5944 5944 5943
5914 5918 5921 5924 5927 5931 5934 5936 5939 5940 5941 5942 5943 5943 5944 5944 5943 5943 5943 5943 5943 5943 5942 5943 5943 5942 5942 5943 5943 5943 5943 5943 5944 5944 5944 5945 5946 5946 5946 5946 5946 5946 5945
5914 5917 5921 5924 5928 5931 5934 5937 5939 5941 5943 5944 5945 5945 5946 5947 5947 5945 5945 5945 5946 5945 5945 5945 5946 5945 5945 5945 5945 5945 5946 5945 5945 5946 5946 5947 5948 5948 5948 5949 5949 5949 5949
5914 5917 5921 5925 5928 5931 5934 5937 5939 5941 5944 5945 5946 5947 5948 5948 5949 5948 5948 5949 5948 5948 5948 5948 5948 5948 5948 5948 5947 5947 5948 5948 5948 5948 5948 5949 5950 5950 5951 5951 5952 5952 5951
5914 5917 5920 5924 5928 5930 5932 5935 5939 5940 5943 5946 5947 5948 5949 5950 5951 5952 5951 5951 5952 5950 5950 5951 5951 5951 5950 5950 5950 5950 5950 5951 5951 5951 5952 5952 5953 5953 5954 5954 5954 5954 5953
5913 5916 5919 5923 5926 5929 5932 5935 5939 5941 5943 5945 5947 5949 5950 5950 5952 5953 5954 5953 5953 5953 5953 5953 5954 5953 5953 5952 5952 5953 5953 5953 5953 5954 5956 5956 5957 5956 5956 5956 5956 5955 5955
5910 5913 5916 5921 5924 5927 5932 5935 5938 5939 5941 5944 5947 5949 5951 5952 5954 5955 5955 5955 5955 5955 5954 5954 5955 5955 5955 5955 5955 5954 5955 5955 5956 5957 5958 5958 5958 5958 5959 5959 5959 5959 5958
5904 5909 5913 5917 5922 5926 5931 5934 5936 5939 5941 5945 5948 5950 5951 5952 5954 5955 5955 5956 5956 5955 5956 5956 5957 5957 5957 5957 5957 5957 5958 5958 5959 5959 5960 5960 5961 5962 5963 5963 5963 5963 5962
5900 5904 5909 5915 5920 5924 5928 5932 5935 5938 5941 5944 5946 5949 5951 5952 5953 5955 5956 5956 5956 5956 5956 5958 5958 5958 5959 5959 5959 5959 5960 5960 5961 5962 5962 5964 5965 5966 5966 5966 5965 5964 5963
Wind_Speed
10 13 11 11 11 14 16 18 18 17 17 17 16 16 15 13 12 12 11 10 10 10 10 10 10 10 9 8 10 11 12 13 13 13 13 14 13 12 11 9 8 8 8
13 12 12 11 12 14 16 17 16 16 16 16 15 14 13 12 11 9 8 7 7 7 8 8 9 9 10 8 10 12 13 13 12 13 13 13 12 12 10 8 8 8 8
13 13 14 12 13 14 15 15 15 15 15 14 12 13 11 10 10 10 9 7 5 4 6 8 8 9 10 11 12 13 14 14 13 13 13 11 11 10 9 7 7 7 7
13 15 15 12 14 14 14 14 13 13 12 12 11 11 11 9 11 11 9 7 4 2 5 8 10 10 11 11 13 15 17 15 14 12 12 11 9 8 7 6 7 7 7
13 15 15 13 14 15 14 13 12 11 11 10 10 12 12 11 12 12 10 9 8 5 7 10 11 11 12 12 10 15 17 16 15 13 11 10 9 7 6 5 5 5 6
13 15 14 13 14 14 14 12 11 10 10 10 11 12 12 13 15 15 15 14 13 11 11 13 14 13 14 13 17 16 17 15 14 12 10 9 8 6 5 6 5 6 6
15 15 15 14 14 15 14 12 11 9 10 12 13 14 16 16 17 18 18 19 20 20 19 17 16 14 15 14 15 14 16 14 13 11 10 9 7 6 7 8 8 7 8
15 15 15 16 15 15 15 13 11 10 12 13 15 16 16 15 16 16 18 19 21 20 19 16 15 14 15 15 16 15 14 13 11 9 7 7 6 6 7 8 7 7 7
15 15 15 16 16 16 16 13 12 13 13 15 15 14 13 12 12 13 14 16 18 20 17 15 13 12 12 13 14 14 12 10 8 6 6 6 6 6 5 5 4 3 3
15 15 15 16 16 17 16 14 14 14 14 14 13 13 11 9 8 10 12 13 15 16 16 16 15 13 11 10 11 12 10 9 7 7 6 5 4 3 1 1 2 2 1
15 16 15 16 16 17 16 15 15 14 14 14 13 12 9 6 5 8 9 11 13 13 13 15 13 12 11 11 11 11 9 7 6 4 2 1 2 2 2 2 3 2 1
18 17 16 15 15 16 16 15 15 15 14 13 12 12 10 11 11 12 10 9 10 11 10 11 11 11 9 9 8 6 6 5 5 5 6 5 3 2 2 3 4 4 2
19 18 17 16 14 16 16 15 15 14 13 12 12 11 11 10 10 9 8 8 9 9 8 10 10 9 9 10 9 9 9 7 5 6 5 4 4 5 4 7 6 4 4
20 18 17 17 15 16 16 15 14 13 12 11 12 12 12 11 10 11 12 12 10 8 8 6 7 7 9 9 9 10 10 9 8 9 9 8 8 9 9 8 9 7 8
21 20 18 18 17 17 16 15 13 13 11 12 12 11 12 12 11 12 11 11 10 11 8 5 5 6 7 8 8 9 9 9 10 12 12 10 12 11 11 9 10 11 12
22 21 20 18 18 18 17 15 13 12 12 12 12 12 10 10 12 11 11 12 12 11 11 8 6 9 9 9 8 9 9 10 11 12 13 13 13 12 14 13 12 13 15
24 23 22 21 20 19 18 16 13 14 12 12 12 12 11 9 9 12 11 13 12 13 14 13 13 13 10 11 11 11 11 12 12 12 13 12 13 12 12 13 14 14 15
24 24 24 23 22 21 18 17 13 12 12 11 12 13 12 11 11 12 14 15 14 12 15 14 14 13 12 13 14 15 14 14 13 11 11 11 11 12 14 13 12 13 12
26 25 25 25 24 21 19 16 15 15 15 11 12 14 14 14 13 14 15 15 15 14 14 13 15 14 13 14 14 15 15 15 14 12 11 11 11 12 12 13 13 13 12
26 26 26 27 25 22 18 16 16 17 16 14 13 14 15 16 16 16 16 15 15 16 16 15 15 15 13 13 14 13 13 13 14 13 12 12 12 14 16 14 13 14 15
27 27 26 26 25 22 19 18 17 19 17 15 14 14 16 15 15 16 19 16 16 16 16 13 14 14 14 13 14 13 11 11 11 11 12 13 15 16 13 13 14 14 15
27 28 28 27 26 25 23 22 20 20 18 16 14 14 16 15 15 14 16 15 14 15 13 11 11 11 11 11 12 12 11 11 11 12 13 14 14 12 12 15 15 16 16
28 28 28 28 28 27 24 21 20 19 18 17 15 14 13 13 12 13 13 11 12 12 12 11 10 10 8 7 8 7 7 8 10 11 13 12 12 12 13 15 15 14 14
30 30 31 31 31 29 25 22 21 22 22 19 15 14 14 12 11 11 12 11 11 10 10 10 10 10 7 6 6 5 5 5 7 8 9 10 11 10 12 13 13 12 12
36 34 33 33 31 29 27 24 24 23 21 18 16 13 13 12 11 10 11 10 10 9 9 10 10 10 10 8 7 5 5 4 5 6 7 8 9 10 11 10 8 7 8
40 39 37 35 33 31 28 25 23 21 21 20 18 15 14 13 12 10 9 8 9 9 8 9 11 11 12 10 9 8 7 7 8 9 10 11 10 10 9 8 7 8 8
Wind_Direction
110 106 99 99 95 101 102 103 108 107 103 97 95 93 91 88 90 91 93 94 98 101 101 96 93 99 107 131 137 135 133 130 121 114 107 103 106 108 100 90 78 68 64
121 109 107 101 102 104 104 103 108 108 103 98 95 93 92 93 89 88 91 96 109 113 111 104 103 103 112 121 138 145 139 132 118 114 111 104 97 92 85 75 69 64 78
120 118 109 108 110 110 107 107 108 105 102 99 93 88 83 82 80 72 68 70 78 108 133 140 127 115 113 124 142 147 142 134 122 116 108 102 98 94 92 88 83 85 88
124 122 115 117 115 115 114 114 111 102 96 90 83 78 75 70 70 61 55 48 56 111 149 151 136 122 115 113 134 142 144 134 120 118 113 107 97 92 91 86 91 90 91
127 124 119 120 119 121 119 112 106 100 97 87 81 79 81 83 76 68 60 54 45 72 138 141 130 118 105 104 132 138 144 137 129 121 116 110 104 102 99 102 109 107 101
129 126 125 123 124 122 118 113 109 106 103 100 95 96 96 89 79 72 66 62 59 77 118 128 128 115 105 104 111 132 143 135 133 127 126 121 115 104 96 97 107 115 103
134 132 133 128 126 125 118 117 119 119 108 106 105 104 105 94 84 78 71 64 62 78 99 116 117 114 112 114 124 133 137 138 140 141 136 129 125 123 112 97 98 106 99
140 139 139 130 128 124 125 131 130 123 118 116 114 113 103 91 82 77 73 67 70 79 94 105 113 116 119 117 122 131 137 139 142 138 140 138 135 133 120 106 97 98 94
147 143 141 131 131 132 135 135 130 130 126 121 118 110 101 88 77 77 76 75 77 82 89 98 107 114 118 115 119 122 129 131 128 130 135 139 135 132 127 115 89 74 89
149 146 144 138 140 140 139 137 135 131 131 124 118 105 97 88 84 87 83 80 81 86 88 88 91 95 104 112 109 115 121 126 123 122 130 141 138 143 134 109 68 49 78
150 151 150 147 146 143 138 140 135 135 127 120 104 93 91 86 73 85 95 91 83 91 93 92 94 96 100 101 106 114 120 127 125 118 131 189 233 201 173 139 119 150 157
154 156 155 151 146 141 140 139 137 137 128 114 96 95 70 78 79 98 99 85 91 88 87 90 93 96 107 108 102 104 108 104 116 107 87 89 100 88 76 103 129 148 151
159 159 158 153 147 142 141 140 139 134 128 111 101 94 89 73 83 80 94 93 91 94 91 84 90 102 98 95 102 100 94 85 111 106 89 87 71 68 84 108 102 92 60
162 160 162 155 150 148 145 143 137 129 126 125 109 92 83 78 86 87 86 87 81 82 90 97 96 94 99 109 105 97 99 95 88 87 84 76 74 87 90 102 102 85 74
163 162 164 159 155 155 151 148 143 134 132 132 115 98 82 77 91 95 76 64 54 65 82 99 133 127 100 104 111 109 109 100 87 83 82 73 76 86 91 86 83 83 80
166 165 165 164 160 157 156 153 149 133 140 122 105 97 87 69 84 81 73 58 51 61 72 85 99 117 111 100 115 107 103 100 97 92 88 82 81 86 94 92 85 84 85
173 170 169 169 165 163 160 158 152 146 136 122 106 97 97 95 86 86 76 70 67 77 78 84 100 104 102 105 106 102 100 94 91 93 92 91 89 86 84 84 88 87 87
178 176 173 171 169 166 163 167 158 155 141 123 109 108 106 101 98 96 90 82 81 82 87 89 100 105 103 108 105 103 100 97 99 92 88 88 89 90 90 83 83 89 89
182 181 180 173 175 168 168 169 156 151 138 125 115 114 114 111 108 101 93 92 90 88 91 97 104 107 107 110 106 103 103 104 104 99 95 95 96 98 95 92 96 98 90
183 185 183 177 175 169 165 165 164 161 148 134 124 119 121 120 114 105 100 97 98 97 100 105 112 111 115 119 115 112 114 114 109 105 107 109 104 104 104 93 86 87 82
191 186 184 181 177 171 167 170 176 168 166 145 134 130 127 123 122 116 110 111 107 99 99 104 105 107 112 116 120 118 119 112 106 111 114 114 113 110 102 95 90 82 78
197 194 188 187 181 177 179 180 181 174 172 163 149 144 144 135 127 129 122 121 114 109 108 106 105 100 104 112 110 112 114 112 110 108 111 116 121 121 105 95 88 78 71
201 198 195 191 187 185 187 182 181 178 179 179 163 152 145 140 138 127 130 125 119 112 117 119 121 115 107 97 92 101 104 114 119 120 118 116 115 104 95 81 71 64 56
201 202 196 194 191 189 189 183 183 185 187 183 172 165 155 147 145 142 140 140 130 125 125 136 131 125 131 124 114 106 99 99 100 107 105 105 104 97 80 68 60 51 41
202 201 201 195 197 194 189 188 193 192 189 185 183 182 171 160 159 156 149 150 148 134 132 138 138 138 139 141 134 144 145 138 122 123 119 110 92 80 77 72 66 61 49
206 199 202 201 199 196 193 194 197 199 190 192 192 191 183 176 176 178 169 156 145 139 135 133 126 140 147 147 151 156 153 148 140 136 128 123 119 110 96 81 64 56 48